Retour au catalogue

ONEWEB-0192

ActifCommunicationsPO
NORAD 48222·PAYLOAD·🇬🇧 United Kingdom

Lancé Apr 25, 2021 depuis Vostochny Cosmodrome

Loading…

Prochains Passages (prochaines 24 heures)

TLE

FraisSource: CelesTrak SupGP

Époque: Sep 14, 2026, 18:43 UTC

1 48222C 21031N   26257.78002732 -.00001072  00000+0 -28945-2 0  2574
2 48222  87.8892 271.8352 0001853  90.6045  12.0315 13.14499781    11

Suivez ONEWEB-0192 en temps réel avec AllMySat

Download on the App Store